sat.trackr.live / text

‹ back to catalog

WORLDVIEW-3 (WV-3)

NORAD 40115 · 2014-048A

PAYLOAD ACTIVE UNKNOWN

§ Identity

Operator
Country
US
Launch date
2014-08-13
Launch site
AFWTR
Launch vehicle
Mass (kg)
RCS (m²)
6.22

Purposes: earth_obs

External: N2YO · Heavens-Above · Gunter

§ Orbital elements

Epoch: 2026-09-20T04:03:57.312576Z

Period
96.96 min
Inclination
97.8487°
Eccentricity
0.0002030
Mean motion
14.85145635 rev/d
Perigee alt
611.7 km
Apogee alt
614.5 km
Semi-major
6,991.3 km
B*
5.7790e-5
RAAN
336.6576°
Arg perigee
48.1272°
Mean anomaly
312.0116°
Rev number
65,600

§ Raw data

WORLDVIEW-3 (WV-3)1 40115U 14048A   26263.16941334  .00000441  00000+0  57790-4 0  99982 40115  97.8487 336.6576 0002030  48.1272 312.0116 14.85145635656004

JSON: /api/v1/satellites/40115 · /tle

For live sub-satellite position, see the globe view (requires WebGL).

§ Visibility from observer

Set your observer location to see the next 7 days of passes ≥ 10°. The values pass through the URL so the page stays shareable.

No JS? Fill the form by hand. The geolocation button needs JavaScript.